Zurück zum Katalog

COSMOS 594

AktivMilitärLEO
NORAD 6851·PAYLOAD·🇷🇺 Russia

Gestartet Oct 2, 1973 von Plesetsk Cosmodrome

Loading…

Nächste Überflüge (nächste 24 Stunden)

TLE

AktuellSource: Space-Track

Epoche: Sep 14, 2026, 04:32 UTC

1 06851U 73069G   26257.18916837  .00000010  00000-0  15434-3 0  9991
2 06851  74.0020 158.0876 0067620 212.1670 302.3034 12.57652069430836

Verfolge COSMOS 594 in Echtzeit mit AllMySat

Download on the App Store